[[{"header":{"parameterUnit":"m.s-1","parameterCategory":2,"la1":30.2991,"la2":30.254,"lo1":-89.0895,"lo2":-89.0444,"dy":0.0017,"dx":0.0017,"nx":28,"ny":28,"refTime":"2023-09-10T09:00:00:Z","depth":"0","parameterNumber":2,"parameterNumberName":"U-component_of_CURRENTS"},"data":[0,0,0,0,0,0,0,0,0,0,0,0,0,0,0,0,0,0,0,0,0,0,0,0,0,0,0,0,0,0,0,0,0,0,0,0,0,0,0,0,0,0,0,0,0,0,0,0,0,0,0,0,0,0,0,0,0,0,-0.2292,-0.2293,0,-0.2342,-0.2342,-0.2343,-0.2333,-0.2333,-0.2332,-0.2331,-0.2292,-0.2292,-0.2292,0,0,0,0,0,0,0,0,0,0,0,0,0,-0.2289,-0.2288,-0.2292,-0.2293,-0.2294,-0.2342,-0.2342,-0.2343,-0.2333,-0.2332,-0.2331,-0.233,-0.2292,-0.2292,-0.2292,0,0,0,0,0,0,0,0,0,0,0,0,0,-0.2309,-0.2288,-0.2292,-0.2295,-0.2296,-0.2342,-0.2343,-0.2343,-0.2334,-0.2332,-0.2331,-0.233,-0.2292,-0.2292,-0.2292,-0.2315,0,0,-0.2291,-0.229,0,0,0,0,0,0,0,0,-0.2307,-0.2308,-0.2294,-0.2295,-0.2296,-0.2331,-0.2327,-0.233,-0.2334,-0.2319,-0.2331,-0.2329,-0.2298,-0.2297,-0.231,-0.2313,-0.2311,-0.2291,-0.229,-0.229,-0.229,0,0,0,0,0,0,0,-0.2306,-0.2307,-0.2311,-0.2295,-0.2296,-0.2328,-0.2329,-0.2328,-0.2313,-0.232,-0.2319,-0.2326,-0.2298,-0.231,-0.2309,-0.2311,-0.2291,-0.229,-0.229,-0.229,-0.214,-0.2136,0,0,0,0,0,0,-0.2297,-0.2305,-0.231,-0.2313,-0.2299,-0.2329,-0.2329,-0.232,-0.2315,-0.2314,-0.2328,-0.2326,-0.2312,-0.2309,-0.2307,-0.221,-0.229,-0.229,-0.229,-0.2144,-0.2139,-0.2135,0,0,0,0,0,0,-0.2296,-0.2296,-0.2308,-0.2312,-0.2315,-0.2329,-0.232,-0.2322,-0.2328,-0.2322,-0.2318,-0.2331,-0.2311,-0.2308,-0.2249,-0.2213,-0.229,-0.2289,-0.2148,-0.2142,-0.2137,-0.2095,0,0,0,0,0,0,-0.2296,-0.2295,-0.2301,-0.231,-0.2315,-0.23,-0.2321,-0.2324,-0.2335,-0.2333,-0.2324,-0.2319,-0.2309,-0.2249,-0.2248,-0.2214,-0.2289,-0.2153,-0.2145,-0.2139,-0.2101,-0.2089,-0.2078,0,0,0,0,0,-0.2295,-0.2284,-0.23,-0.2302,-0.2316,-0.2299,-0.2303,-0.2311,-0.2337,-0.2318,-0.2292,-0.2319,-0.2203,-0.2246,-0.2246,-0.2211,-0.2156,-0.2147,-0.2139,-0.2106,-0.2091,-0.2078,0,0,0,0,0,0,-0.2277,-0.2283,-0.23,-0.2291,-0.2287,-0.2297,-0.2285,-0.2314,-0.2291,-0.2279,-0.2288,-0.2279,-0.2208,-0.2207,-0.2255,-0.2136,-0.2179,-0.217,-0.2153,-0.2139,-0.2128,-0.2155,-0.2289,0,0,0,0,0,-0.2281,-0.2283,-0.2281,-0.228,-0.2261,-0.2284,-0.2289,-0.229,-0.2272,-0.2264,-0.2261,-0.2228,-0.2178,-0.2157,-0.2116,-0.2075,-0.2089,-0.204,-0.2029,-0.202,-0.2034,-0.2029,-0.2021,-0.2107,-0.2107,-0.2107,0,0,-0.2285,-0.2285,-0.2292,-0.228,-0.2271,-0.2228,-0.2279,-0.2258,-0.2233,-0.2261,-0.2214,-0.2194,-0.2153,-0.2079,-0.2049,-0.2076,-0.1988,-0.2009,-0.2002,-0.2022,-0.202,-0.2012,-0.2006,-0.2101,-0.2102,-0.2103,0,0,-0.2247,-0.2269,-0.2232,-0.2215,-0.2194,-0.2198,-0.219,-0.2185,-0.2181,-0.2135,-0.2134,-0.2096,-0.2037,-0.2006,-0.1979,-0.1884,-0.1925,-0.1859,-0.1837,-0.183,-0.1825,-0.1821,-0.179,-0.1783,-0.1858,-0.1858,-0.1858,0,-0.2243,-0.2202,-0.2221,-0.2159,-0.2148,-0.2175,-0.2119,-0.2111,-0.2099,-0.2103,-0.209,-0.2027,-0.1997,-0.1935,-0.1882,-0.1865,-0.1864,-0.1904,-0.1822,-0.1819,-0.1815,-0.1785,-0.1779,-0.1855,-0.1855,-0.1856,-0.1856,0,-0.2164,-0.2127,-0.2091,-0.2033,-0.2024,-0.1979,-0.1966,-0.1962,-0.1972,-0.1983,-0.1936,-0.19,-0.1878,-0.1841,-0.1829,-0.1785,-0.1789,-0.1813,-0.1878,-0.1806,-0.1775,-0.177,-0.1851,-0.1852,-0.1853,-0.1853,0,0,-0.2144,-0.2053,-0.2042,-0.2002,-0.1956,-0.194,-0.1893,-0.1876,-0.1881,-0.1851,-0.1851,-0.1761,-0.1802,-0.1773,-0.1771,-0.1756,-0.1708,-0.1774,-0.1775,-0.1777,-0.1678,-0.162,-0.1608,-0.1731,-0.1731,-0.173,-0.1655,0,-0.2065,-0.1942,-0.1935,-0.1845,-0.1773,-0.1802,-0.1776,-0.1779,-0.1785,-0.1788,-0.1776,-0.1753,-0.1756,-0.1753,-0.1738,-0.173,-0.1697,-0.1725,-0.1718,-0.1717,-0.1705,-0.1602,-0.1517,-0.1438,-0.165,-0.1649,-0.1648,0,-0.1983,-0.191,-0.1794,-0.1757,-0.1736,-0.1707,-0.172,-0.1703,-0.1718,-0.1729,-0.1733,-0.1744,-0.172,-0.1729,-0.1693,-0.1717,-0.1688,-0.1673,-0.167,-0.1639,-0.165,-0.1547,-0.1421,-0.1418,-0.164,-0.1641,-0.1641,0,-0.1945,-0.1835,-0.1752,-0.1723,-0.1664,-0.1658,-0.1664,-0.1685,-0.1694,-0.1708,-0.172,-0.1715,-0.1708,-0.169,-0.1664,-0.1682,-0.1621,-0.1644,-0.1554,-0.1549,-0.1487,-0.1477,-0.1393,-0.1598,-0.1598,-0.1598,-0.1598,0,-0.1852,-0.1791,-0.1728,-0.1665,-0.162,-0.1622,-0.1615,-0.163,-0.1661,-0.1665,-0.1698,-0.169,-0.1701,-0.1677,-0.1653,-0.1581,-0.1611,-0.153,-0.1522,-0.1459,-0.1449,-0.1455,-0.1493,-0.1595,-0.1596,-0.1596,-0.1597,0,-0.178,-0.1732,-0.1636,-0.1578,-0.1577,-0.1546,-0.1579,-0.1581,-0.1628,-0.1632,-0.1637,-0.1665,-0.1625,-0.1617,-0.1573,-0.1552,-0.1467,-0.146,-0.1371,-0.1354,-0.1268,-0.1306,-0.1242,-0.1206,-0.1344,-0.1342,-0.134,0,-0.172,-0.1653,-0.1578,-0.1536,-0.1495,-0.1479,-0.148,-0.1541,-0.1552,-0.1603,-0.1591,-0.1577,-0.1531,-0.1455,-0.1402,-0.1329,-0.136,-0.1229,-0.124,-0.1228,-0.1266,-0.1307,-0.1285,-0.1122,-0.1118,-0.1116,-0.1113,0,-0.1598,-0.1582,-0.1494,-0.1416,-0.1386,-0.1377,-0.1388,-0.1406,-0.1476,-0.1486,-0.1471,-0.1441,-0.1367,-0.1258,-0.1192,-0.1146,-0.1204,-0.117,-0.1184,-0.1096,-0.111,-0.1083,-0.1203,-0.1089,-0.1092,-0.1094,-0.1095,-0.1096,-0.1522,-0.1444,-0.135,-0.1273,-0.1257,-0.1252,-0.1226,-0.1265,-0.1272,-0.1251,-0.1306,-0.1201,-0.1168,-0.1044,-0.101,-0.0934,-0.0997,-0.091,-0.0956,-0.0999,-0.0962,-0.1014,-0.0885,-0.0886,-0.0887,-0.0888,-0.0889,0,-0.1381,-0.1305,-0.1229,-0.1126,-0.1084,-0.1121,-0.1136,-0.1101,-0.1067,-0.1031,-0.0991,-0.0909,-0.0848,-0.0829,-0.0795,-0.0753,-0.075,-0.0744,-0.0788,-0.0776,-0.0824,-0.0812,-0.0629,-0.0629,-0.0629,-0.0629,-0.0629,-0.0629,-0.1283,-0.1148,-0.1097,-0.096,-0.0927,-0.0847,-0.0836,-0.0809,-0.0761,-0.0641,-0.0545,-0.0498,-0.0602,-0.0762,-0.0749,-0.0705,-0.0718,-0.0673,-0.0725,-0.0776,-0.0796,-0.0815,-0.081,-0.0629,-0.063,-0.0621,-0.0622,-0.0622]},{"header":{"parameterUnit":"m.s-1","parameterCategory":2,"la1":30.2991,"la2":30.254,"lo1":-89.0895,"lo2":-89.0444,"dy":0.0017,"dx":0.0017,"nx":28,"ny":28,"refTime":"2023-09-10T09:00:00:Z","depth":"0","parameterNumber":3,"parameterNumberName":"V-component_of_CURRENTS"},"data":[0,0,0,0,0,0,0,0,0,0,0,0,0,0,0,0,0,0,0,0,0,0,0,0,0,0,0,0,0,0,0,0,0,0,0,0,0,0,0,0,0,0,0,0,0,0,0,0,0,0,0,0,0,0,0,0,0,0,-0.0369,-0.0368,0,-0.0274,-0.0273,-0.0272,-0.0236,-0.0236,-0.0236,-0.0237,-0.0055,-0.005,-0.0045,0,0,0,0,0,0,0,0,0,0,0,0,0,-0.0517,-0.0514,-0.0369,-0.0368,-0.0367,-0.0274,-0.0273,-0.0272,-0.0236,-0.0236,-0.0236,-0.0237,-0.0056,-0.005,-0.0044,0,0,0,0,0,0,0,0,0,0,0,0,0,-0.044,-0.0513,-0.0369,-0.0338,-0.0334,-0.0275,-0.0273,-0.0271,-0.0236,-0.0236,-0.0236,-0.0237,-0.0059,-0.0051,-0.0043,0.0013,0,0,-0.002,-0.0017,0,0,0,0,0,0,0,0,-0.0444,-0.0435,-0.0343,-0.034,-0.0335,-0.0267,-0.0259,-0.0172,-0.0235,-0.0273,-0.0237,-0.0237,-0.0118,-0.0105,-0.0087,0.0021,0.0029,-0.0019,-0.0015,-0.0011,-0.0009,0,0,0,0,0,0,0,-0.045,-0.0439,-0.0331,-0.0342,-0.0337,-0.0328,-0.0317,-0.0242,-0.0192,-0.0269,-0.0267,-0.0256,-0.0115,-0.0095,-0.0082,0.0032,-0.002,-0.0013,-0.0008,-0.0005,0.014,0.014,0,0,0,0,0,0,-0.0461,-0.0443,-0.0334,-0.0328,-0.0392,-0.0325,-0.0313,-0.0289,-0.0195,-0.0181,-0.0256,-0.0255,-0.0108,-0.0091,-0.0076,-0.003,-0.0011,-0.0004,0.0,0.0141,0.014,0.014,0,0,0,0,0,0,-0.0464,-0.0452,-0.0338,-0.0385,-0.037,-0.0322,-0.0295,-0.0287,-0.0269,-0.0185,-0.0171,-0.0247,-0.0107,-0.0087,-0.0021,-0.0022,-0.0001,0.0006,0.0142,0.0141,0.014,0.0079,0,0,0,0,0,0,-0.0469,-0.0453,-0.0446,-0.0385,-0.0368,-0.0309,-0.0294,-0.0284,-0.0262,-0.0259,-0.0172,-0.0156,-0.0106,-0.0034,-0.0014,-0.0011,0.0012,0.0143,0.0142,0.014,0.0082,0.0076,0.0071,0,0,0,0,0,-0.0474,-0.0458,-0.0445,-0.0433,-0.0356,-0.0309,-0.0299,-0.0267,-0.0261,-0.0253,-0.0202,-0.0159,-0.0029,-0.0027,-0.0004,0.0001,0.0144,0.0142,0.014,0.0084,0.0077,0.0071,0,0,0,0,0,0,-0.0523,-0.0451,-0.0436,-0.0401,-0.0363,-0.0303,-0.029,-0.027,-0.0223,-0.022,-0.0149,-0.0129,-0.008,-0.0032,-0.0031,0.0033,0.0058,0.006,0.0007,0.0001,-0.0005,-0.0011,0.0019,0,0,0,0,0,-0.053,-0.0498,-0.0436,-0.0414,-0.0391,-0.0343,-0.0322,-0.03,-0.0249,-0.023,-0.0172,-0.0117,-0.0067,-0.0028,0.0023,0.0079,0.0115,0.0089,0.0083,0.0078,0.0086,0.0126,0.0125,0.0134,0.0134,0.0134,0,0,-0.055,-0.0502,-0.0489,-0.0423,-0.0388,-0.0357,-0.0331,-0.0299,-0.028,-0.0213,-0.017,-0.0128,-0.006,-0.0014,0.0012,0.0029,0.0091,0.0076,0.0072,0.0082,0.0124,0.0123,0.0122,0.0133,0.0133,0.0133,0,0,-0.0564,-0.0523,-0.05,-0.0464,-0.041,-0.0375,-0.0369,-0.0309,-0.0289,-0.024,-0.0203,-0.0163,-0.0073,-0.0034,-0.0,-0.0001,0.0054,0.0007,-0.0009,0.0029,0.0029,0.0029,0.0061,0.0065,0.0012,0.0012,0.0012,0,-0.0599,-0.0545,-0.0492,-0.0458,-0.0434,-0.0386,-0.0365,-0.0332,-0.0267,-0.0248,-0.0236,-0.0138,-0.0083,-0.0031,-0.004,-0.0011,0.0016,0.0013,0.0023,0.0024,0.0025,0.0059,0.0064,0.0008,0.0009,0.0009,0.0009,0,-0.0588,-0.0551,-0.0534,-0.0473,-0.0445,-0.0417,-0.0365,-0.0341,-0.0313,-0.0279,-0.0231,-0.0167,-0.011,-0.0096,-0.0059,-0.0028,-0.0011,0.0005,0.004,0.0021,0.0057,0.0063,0.0004,0.0005,0.0006,0.0007,0,0,-0.0662,-0.0549,-0.0548,-0.0518,-0.0449,-0.0425,-0.0394,-0.0348,-0.0333,-0.0281,-0.0254,-0.0186,-0.0161,-0.0124,-0.0083,-0.0046,-0.0018,-0.0018,-0.0015,0.0015,0.0063,0.0087,0.0096,-0.0001,0.0,0.0001,0.0079,0,-0.0676,-0.0612,-0.0557,-0.0523,-0.0486,-0.0437,-0.0415,-0.0375,-0.0335,-0.0299,-0.0242,-0.0201,-0.0168,-0.0148,-0.0107,-0.0037,-0.0002,-0.0041,0.0077,0.008,0.0106,0.0104,0.0143,0.0218,0.0086,0.0087,0.0088,0,-0.0693,-0.0638,-0.0594,-0.0527,-0.0512,-0.0495,-0.0454,-0.0427,-0.0367,-0.0338,-0.0289,-0.0243,-0.0179,-0.0157,-0.0044,-0.0071,-0.0009,0.0041,0.0046,0.0099,0.0117,0.0219,0.0235,0.0345,0.0098,0.0097,0.0097,0,-0.0757,-0.0677,-0.0639,-0.0614,-0.0532,-0.0523,-0.0495,-0.0444,-0.0424,-0.0366,-0.0345,-0.0265,-0.0219,-0.0137,-0.003,-0.0036,0.0094,0.0099,0.0178,0.018,0.0254,0.0261,0.0396,0.0174,0.0174,0.0174,0.0173,0,-0.0785,-0.0763,-0.0665,-0.0644,-0.0625,-0.0565,-0.0555,-0.0518,-0.0469,-0.0437,-0.0373,-0.0326,-0.0212,-0.0122,-0.0034,0.0097,0.0093,0.0182,0.0206,0.0231,0.0235,0.0367,0.0409,0.0177,0.0176,0.0175,0.0175,0,-0.0855,-0.0785,-0.0742,-0.0661,-0.0646,-0.0637,-0.0593,-0.0581,-0.0534,-0.0488,-0.0473,-0.0364,-0.024,-0.0127,0.0022,0.0097,0.0287,0.0256,0.0274,0.0299,0.0464,0.05,0.065,0.0724,0.0354,0.0355,0.0356,0,-0.0886,-0.0864,-0.0774,-0.075,-0.0714,-0.069,-0.0676,-0.0624,-0.0604,-0.0499,-0.0478,-0.0355,-0.0241,-0.0025,0.0125,0.0282,0.0357,0.0395,0.039,0.0489,0.0548,0.056,0.0612,0.0462,0.0463,0.0465,0.0466,0,-0.0953,-0.0913,-0.0854,-0.0795,-0.077,-0.0753,-0.0724,-0.0714,-0.0638,-0.0567,-0.0446,-0.0345,-0.0137,0.0077,0.0262,0.0351,0.0487,0.0428,0.0539,0.0653,0.067,0.0747,0.0386,0.0478,0.0477,0.0476,0.0476,0.0475,-0.1006,-0.0968,-0.088,-0.0822,-0.0805,-0.0795,-0.0776,-0.0707,-0.0636,-0.0449,-0.0385,-0.0121,0.0054,0.0333,0.0433,0.065,0.061,0.0714,0.0752,0.0756,0.0827,0.0485,0.0596,0.0595,0.0595,0.0594,0.0594,0,-0.1035,-0.0963,-0.0918,-0.0838,-0.0832,-0.0815,-0.0786,-0.0721,-0.059,-0.0333,-0.0145,0.0215,0.0439,0.0625,0.0855,0.0974,0.0999,0.1025,0.1068,0.1108,0.0825,0.083,0.0986,0.0986,0.0986,0.0986,0.0986,0.0986,-0.103,-0.096,-0.09,-0.086,-0.0834,-0.081,-0.0786,-0.0642,-0.0451,-0.0029,0.0318,0.0541,0.0734,0.102,0.1253,0.1273,0.14,0.1368,0.1433,0.1252,0.1226,0.1201,0.1217,0.1452,0.1452,0.1715,0.1717,0.1719]}],[{"header":{"parameterUnit":"m.s-1","parameterCategory":2,"la1":30.2991,"la2":30.254,"lo1":-89.0895,"lo2":-89.0444,"dy":0.0017,"dx":0.0017,"nx":28,"ny":28,"refTime":"2023-09-10T09:00:00:Z","depth":"2","parameterNumber":2,"parameterNumberName":"U-component_of_CURRENTS"},"data":[0,0,0,0,0,0,0,0,0,0,0,0,0,0,0,0,0,0,0,0,0,0,0,0,0,0,0,0,0,0,0,0,0,0,0,0,0,0,0,0,0,0,0,0,0,0,0,0,0,0,0,0,0,0,0,0,0,0,-0.1566,-0.1568,0,-0.1607,-0.1606,-0.1606,-0.1505,-0.1504,-0.1502,-0.15,-0.1513,-0.1515,-0.1517,0,0,0,0,0,0,0,0,0,0,0,0,0,-0.1461,-0.1462,-0.1566,-0.1568,-0.157,-0.1607,-0.1606,-0.1605,-0.1506,-0.1504,-0.1502,-0.15,-0.1512,-0.1515,-0.1517,0,0,0,0,0,0,0,0,0,0,0,0,0,-0.149,-0.1462,-0.1566,-0.1536,-0.1535,-0.1608,-0.1606,-0.1605,-0.1506,-0.1504,-0.1501,-0.1499,-0.1512,-0.1515,-0.1517,-0.1587,0,0,-0.1526,-0.1528,0,0,0,0,0,0,0,0,-0.1488,-0.1492,-0.1539,-0.1539,-0.1538,-0.1563,-0.1575,-0.1603,-0.1507,-0.15,-0.15,-0.1497,-0.1539,-0.154,-0.1531,-0.1587,-0.1588,-0.1527,-0.1528,-0.153,-0.153,0,0,0,0,0,0,0,-0.1486,-0.149,-0.1566,-0.1541,-0.1541,-0.1543,-0.1542,-0.1579,-0.1521,-0.1501,-0.1498,-0.1528,-0.1536,-0.1528,-0.1531,-0.1588,-0.1526,-0.1529,-0.1531,-0.1532,-0.1652,-0.1653,0,0,0,0,0,0,-0.1513,-0.1488,-0.1565,-0.1569,-0.1524,-0.1548,-0.1546,-0.1544,-0.1521,-0.152,-0.1531,-0.1524,-0.1525,-0.1528,-0.1531,-0.1549,-0.153,-0.1532,-0.1534,-0.1651,-0.1652,-0.1654,0,0,0,0,0,0,-0.151,-0.1518,-0.1564,-0.1544,-0.1552,-0.1554,-0.1552,-0.1547,-0.155,-0.1547,-0.1541,-0.1543,-0.1523,-0.1527,-0.1556,-0.1551,-0.1534,-0.1536,-0.1649,-0.1651,-0.1653,-0.1627,0,0,0,0,0,0,-0.1506,-0.1516,-0.1491,-0.1545,-0.1555,-0.1603,-0.1556,-0.155,-0.1581,-0.1572,-0.1557,-0.1554,-0.1521,-0.1552,-0.1559,-0.1555,-0.1538,-0.1647,-0.165,-0.1652,-0.1626,-0.1628,-0.1629,0,0,0,0,0,-0.1502,-0.152,-0.1489,-0.1498,-0.153,-0.1606,-0.1608,-0.1592,-0.1585,-0.1584,-0.1573,-0.1555,-0.1574,-0.1557,-0.1564,-0.156,-0.1646,-0.1649,-0.1652,-0.1625,-0.1627,-0.1629,0,0,0,0,0,0,-0.1471,-0.1514,-0.1481,-0.1507,-0.1543,-0.1594,-0.161,-0.1619,-0.1612,-0.16,-0.1584,-0.1581,-0.1597,-0.1608,-0.159,-0.1607,-0.1605,-0.161,-0.1581,-0.1584,-0.1586,-0.1573,-0.1541,0,0,0,0,0,-0.1454,-0.1466,-0.1511,-0.1531,-0.1554,-0.1583,-0.1606,-0.1606,-0.1634,-0.1626,-0.1618,-0.1617,-0.1621,-0.1625,-0.1627,-0.1661,-0.1651,-0.1664,-0.1666,-0.1667,-0.1665,-0.1659,-0.1658,-0.1664,-0.1664,-0.1664,0,0,-0.1429,-0.148,-0.1465,-0.1523,-0.1548,-0.1575,-0.1586,-0.1643,-0.1645,-0.1637,-0.1627,-0.1629,-0.1635,-0.1634,-0.1644,-0.164,-0.1659,-0.1671,-0.1671,-0.1669,-0.1662,-0.1661,-0.166,-0.1667,-0.1666,-0.1666,0,0,-0.1456,-0.1453,-0.147,-0.1507,-0.1575,-0.1592,-0.1621,-0.1667,-0.1655,-0.168,-0.1654,-0.1659,-0.1684,-0.1655,-0.1656,-0.1691,-0.167,-0.1702,-0.1696,-0.169,-0.1688,-0.1687,-0.1656,-0.1652,-0.1701,-0.1701,-0.1701,0,-0.1424,-0.1452,-0.149,-0.1542,-0.1567,-0.1606,-0.163,-0.1641,-0.1679,-0.168,-0.1672,-0.1685,-0.1684,-0.168,-0.1669,-0.1689,-0.168,-0.1677,-0.1688,-0.1686,-0.1685,-0.1654,-0.165,-0.17,-0.17,-0.17,-0.17,0,-0.1459,-0.1473,-0.1515,-0.1552,-0.1583,-0.1631,-0.1659,-0.1669,-0.1677,-0.1681,-0.1689,-0.1683,-0.1687,-0.1687,-0.1685,-0.168,-0.1673,-0.1686,-0.167,-0.1682,-0.165,-0.1646,-0.1699,-0.1699,-0.1699,-0.1699,0,0,-0.1402,-0.1505,-0.1509,-0.1522,-0.1591,-0.1629,-0.1643,-0.1665,-0.1672,-0.168,-0.1681,-0.1679,-0.1682,-0.1685,-0.1682,-0.1673,-0.1643,-0.1675,-0.1675,-0.1623,-0.1612,-0.1552,-0.1542,-0.1657,-0.1657,-0.1657,-0.1585,0,-0.1402,-0.1491,-0.1531,-0.1563,-0.1596,-0.1627,-0.1636,-0.1657,-0.1669,-0.1673,-0.1676,-0.1677,-0.1681,-0.168,-0.1672,-0.1661,-0.1636,-0.1661,-0.1628,-0.1627,-0.1554,-0.1536,-0.1427,-0.135,-0.1581,-0.158,-0.1579,0,-0.1396,-0.1465,-0.1512,-0.157,-0.1583,-0.1596,-0.1617,-0.1633,-0.1652,-0.1662,-0.167,-0.1677,-0.1668,-0.167,-0.1643,-0.1661,-0.1632,-0.1616,-0.1613,-0.1564,-0.156,-0.1383,-0.1334,-0.1573,-0.1573,-0.1574,-0.1574,0,-0.1347,-0.1435,-0.1474,-0.1496,-0.1569,-0.1575,-0.1596,-0.1623,-0.1635,-0.1652,-0.1661,-0.1663,-0.1658,-0.1642,-0.1617,-0.1631,-0.1575,-0.1591,-0.1502,-0.1496,-0.14,-0.1387,-0.1554,-0.1554,-0.1554,-0.1554,-0.1554,0,-0.1337,-0.136,-0.1454,-0.1475,-0.1494,-0.1549,-0.1559,-0.1581,-0.1612,-0.1616,-0.1649,-0.164,-0.1653,-0.163,-0.1607,-0.1536,-0.1567,-0.1486,-0.1473,-0.1388,-0.1375,-0.1577,-0.1581,-0.1552,-0.1552,-0.1553,-0.1553,0,-0.1274,-0.1346,-0.1387,-0.1461,-0.1477,-0.1486,-0.1535,-0.1541,-0.1584,-0.1589,-0.1594,-0.1618,-0.1578,-0.1571,-0.1529,-0.1508,-0.1457,-0.1419,-0.1306,-0.128,-0.1381,-0.1385,-0.1309,-0.1307,-0.1304,-0.1302,-0.1301,0,-0.1247,-0.1266,-0.1355,-0.137,-0.14,-0.143,-0.1442,-0.1507,-0.1518,-0.156,-0.1548,-0.1532,-0.1485,-0.1411,-0.1357,-0.1286,-0.1357,-0.1166,-0.1172,-0.136,-0.1356,-0.1363,-0.137,-0.1026,-0.1023,-0.102,-0.1017,0,-0.117,-0.121,-0.126,-0.1293,-0.1313,-0.1341,-0.1368,-0.1384,-0.1448,-0.1456,-0.1436,-0.1404,-0.1325,-0.1202,-0.1134,-0.1087,-0.1176,-0.11,-0.1318,-0.1114,-0.109,-0.1087,-0.1104,-0.099,-0.0993,-0.0995,-0.0996,-0.0997,-0.1101,-0.1113,-0.1176,-0.1195,-0.1222,-0.123,-0.1212,-0.1255,-0.1261,-0.1258,-0.129,-0.1204,-0.1162,-0.0981,-0.0917,-0.0875,-0.0954,-0.0933,-0.0944,-0.0958,-0.0946,-0.0921,-0.0785,-0.0786,-0.0788,-0.0789,-0.079,0,-0.1004,-0.1037,-0.1057,-0.109,-0.1072,-0.1118,-0.1135,-0.1094,-0.1061,-0.1099,-0.1064,-0.0904,-0.0819,-0.0785,-0.0669,-0.0648,-0.0656,-0.0631,-0.0651,-0.0676,-0.07,-0.0678,-0.0444,-0.0443,-0.0442,-0.0442,0,0,-0.0959,-0.0963,-0.0982,-0.0928,-0.0933,-0.0868,-0.0854,-0.0816,-0.0812,-0.0768,-0.0742,-0.0795,-0.0768,-0.0617,-0.0569,-0.0495,-0.0587,-0.0465,-0.0738,-0.0787,-0.081,-0.0862,-0.0855,0,0,0,0,0]},{"header":{"parameterUnit":"m.s-1","parameterCategory":2,"la1":30.2991,"la2":30.254,"lo1":-89.0895,"lo2":-89.0444,"dy":0.0017,"dx":0.0017,"nx":28,"ny":28,"refTime":"2023-09-10T09:00:00:Z","depth":"2","parameterNumber":3,"parameterNumberName":"V-component_of_CURRENTS"},"data":[0,0,0,0,0,0,0,0,0,0,0,0,0,0,0,0,0,0,0,0,0,0,0,0,0,0,0,0,0,0,0,0,0,0,0,0,0,0,0,0,0,0,0,0,0,0,0,0,0,0,0,0,0,0,0,0,0,0,-0.0173,-0.0173,0,-0.0124,-0.0124,-0.0123,-0.0072,-0.0071,-0.0071,-0.007,0.0044,0.0046,0.0049,0,0,0,0,0,0,0,0,0,0,0,0,0,-0.0191,-0.0191,-0.0173,-0.0173,-0.0172,-0.0125,-0.0124,-0.0123,-0.0072,-0.0071,-0.007,-0.007,0.0043,0.0046,0.0049,0,0,0,0,0,0,0,0,0,0,0,0,0,-0.0165,-0.0191,-0.0173,-0.0143,-0.014,-0.0125,-0.0124,-0.0123,-0.0072,-0.0071,-0.007,-0.007,0.0042,0.0046,0.0049,0.0058,0,0,0.0061,0.0063,0,0,0,0,0,0,0,0,-0.0167,-0.0164,-0.0148,-0.0145,-0.0141,-0.0105,-0.0088,-0.006,-0.0072,-0.0095,-0.007,-0.0069,-0.0002,0.0005,0.0015,0.0063,0.0068,0.0061,0.0064,0.0065,0.0066,0,0,0,0,0,0,0,-0.0169,-0.0166,-0.0152,-0.0147,-0.0144,-0.0121,-0.0117,-0.0083,-0.0051,-0.0093,-0.009,-0.0088,0.0001,0.0011,0.0018,0.007,0.0061,0.0065,0.0067,0.0069,0.0144,0.0144,0,0,0,0,0,0,-0.0182,-0.0168,-0.0153,-0.015,-0.0155,-0.0122,-0.0117,-0.0116,-0.0052,-0.0043,-0.0089,-0.0086,0.0004,0.0014,0.0023,0.0048,0.0065,0.0069,0.0071,0.0144,0.0144,0.0144,0,0,0,0,0,0,-0.0182,-0.0181,-0.0155,-0.016,-0.0155,-0.0123,-0.0122,-0.0115,-0.0104,-0.005,-0.0039,-0.0085,0.0005,0.0017,0.0054,0.0053,0.0071,0.0074,0.0145,0.0144,0.0144,0.0092,0,0,0,0,0,0,-0.0183,-0.0181,-0.0183,-0.0161,-0.0155,-0.0149,-0.0123,-0.0115,-0.0106,-0.0101,-0.0043,-0.0032,0.0007,0.0048,0.0057,0.0058,0.0077,0.0145,0.0144,0.0144,0.0094,0.0089,0.0086,0,0,0,0,0,-0.0184,-0.0197,-0.0183,-0.0182,-0.0159,-0.015,-0.0145,-0.0117,-0.0107,-0.0104,-0.0064,-0.0034,0.0051,0.005,0.0062,0.0064,0.0145,0.0145,0.0144,0.0095,0.009,0.0086,0,0,0,0,0,0,-0.0207,-0.0193,-0.0177,-0.0185,-0.0168,-0.0142,-0.0143,-0.0125,-0.0093,-0.0089,-0.0035,-0.0021,0.0009,0.0041,0.0039,0.0083,0.0102,0.0103,0.0061,0.0057,0.0053,0.0048,0.008,0,0,0,0,0,-0.0214,-0.0216,-0.0197,-0.02,-0.0199,-0.0171,-0.0164,-0.0147,-0.0119,-0.0105,-0.0063,-0.0021,0.0014,0.0038,0.0073,0.0099,0.0129,0.0106,0.0102,0.0099,0.0102,0.014,0.014,0.0141,0.0141,0.0141,0,0,-0.0219,-0.0216,-0.0213,-0.0205,-0.0192,-0.0189,-0.0165,-0.0162,-0.0149,-0.0097,-0.0068,-0.0035,0.0016,0.0045,0.0061,0.0074,0.0112,0.0098,0.0095,0.01,0.014,0.014,0.014,0.0141,0.0141,0.0141,0,0,-0.0244,-0.0236,-0.0248,-0.0239,-0.0229,-0.0209,-0.0212,-0.0187,-0.0168,-0.0141,-0.0101,-0.0069,-0.0014,0.0024,0.0049,0.0044,0.0086,0.0051,0.0035,0.0072,0.0072,0.0073,0.0102,0.0106,0.0054,0.0054,0.0054,0,-0.0252,-0.0263,-0.0248,-0.0259,-0.0253,-0.0222,-0.0228,-0.0206,-0.0167,-0.0151,-0.0138,-0.0062,-0.0022,0.0019,0.0018,0.0036,0.006,0.0049,0.0066,0.0068,0.007,0.01,0.0104,0.0051,0.0052,0.0052,0.0052,0,-0.0284,-0.0289,-0.03,-0.0295,-0.0285,-0.029,-0.0259,-0.0242,-0.0217,-0.0187,-0.0149,-0.0097,-0.0049,-0.0036,-0.0007,0.0023,0.0037,0.0052,0.0077,0.0066,0.0099,0.0104,0.0048,0.0049,0.0049,0.005,0,0,-0.0304,-0.0319,-0.032,-0.0324,-0.0306,-0.0303,-0.0284,-0.0257,-0.0243,-0.0202,-0.0176,-0.0122,-0.0096,-0.0066,-0.0028,0.0006,0.0035,0.0031,0.0034,0.0058,0.0111,0.013,0.0139,0.0053,0.0054,0.0054,0.0126,0,-0.033,-0.0367,-0.0355,-0.0364,-0.0379,-0.0341,-0.0324,-0.0292,-0.0256,-0.0223,-0.017,-0.0135,-0.0106,-0.0087,-0.0048,0.0017,0.005,0.0014,0.0121,0.0124,0.0141,0.0147,0.0143,0.0207,0.0132,0.0133,0.0133,0,-0.036,-0.0381,-0.0413,-0.0406,-0.0406,-0.04,-0.0367,-0.0346,-0.029,-0.0263,-0.0218,-0.0175,-0.0116,-0.0095,0.0009,-0.0015,0.0042,0.009,0.0094,0.0137,0.0155,0.0208,0.0221,0.0144,0.0143,0.0142,0.0142,0,-0.0395,-0.0412,-0.0442,-0.0443,-0.0434,-0.0429,-0.0411,-0.0364,-0.0344,-0.029,-0.0269,-0.0196,-0.0153,-0.0077,0.0023,0.0017,0.0138,0.0144,0.0215,0.0217,0.0249,0.0252,0.0215,0.0215,0.0214,0.0214,0.0214,0,-0.0432,-0.0448,-0.0466,-0.0482,-0.0498,-0.047,-0.0465,-0.0435,-0.0387,-0.0356,-0.0297,-0.0252,-0.0146,-0.0062,0.0019,0.0139,0.0138,0.0218,0.024,0.0229,0.0229,0.0204,0.0202,0.0217,0.0216,0.0216,0.0215,0,-0.0467,-0.0482,-0.0516,-0.0524,-0.0523,-0.0536,-0.0507,-0.0497,-0.0449,-0.0406,-0.0391,-0.0287,-0.0173,-0.0068,0.0071,0.0139,0.0245,0.0286,0.0262,0.0281,0.0298,0.0292,0.0371,0.0372,0.0373,0.0374,0.0375,0,-0.0484,-0.0511,-0.0555,-0.0577,-0.0583,-0.059,-0.0586,-0.0539,-0.0519,-0.0417,-0.0397,-0.028,-0.0175,0.0024,0.0158,0.03,0.0289,0.0369,0.0359,0.0302,0.0316,0.0308,0.0301,0.0378,0.0379,0.0379,0.038,0,-0.051,-0.0539,-0.0582,-0.0631,-0.0647,-0.0655,-0.0642,-0.0632,-0.0556,-0.049,-0.0375,-0.0279,-0.0086,0.009,0.0257,0.0332,0.0343,0.0386,0.0349,0.0334,0.0313,0.0325,0.0317,0.0385,0.0385,0.0384,0.0384,0.0384,-0.0529,-0.0578,-0.0639,-0.0681,-0.0701,-0.0705,-0.0696,-0.0648,-0.0585,-0.0461,-0.0369,-0.0206,-0.0041,0.0207,0.0332,0.0421,0.0416,0.044,0.0436,0.0432,0.0415,0.0398,0.0482,0.0482,0.0482,0.0482,0.0482,0,-0.055,-0.0612,-0.0665,-0.0724,-0.0744,-0.0738,-0.0718,-0.067,-0.0571,-0.0447,-0.0307,-0.0112,0.0082,0.0221,0.0388,0.0497,0.0476,0.0495,0.0458,0.0452,0.0447,0.0429,0.0501,0.0501,0.0501,0.0501,0,0,-0.0565,-0.0649,-0.0689,-0.0743,-0.0765,-0.0761,-0.0741,-0.0636,-0.0537,-0.0377,-0.0258,-0.0106,0.0085,0.0209,0.035,0.043,0.0403,0.0424,0.0401,0.0336,0.033,0.0412,0.0377,0,0,0,0,0]}],[{"header":{"parameterUnit":"m.s-1","parameterCategory":2,"la1":30.2991,"la2":30.254,"lo1":-89.0895,"lo2":-89.0444,"dy":0.0017,"dx":0.0017,"nx":28,"ny":28,"refTime":"2023-09-10T09:00:00:Z","depth":"4","parameterNumber":2,"parameterNumberName":"U-component_of_CURRENTS"},"data":[0,0,0,0,0,0,0,0,0,0,0,0,0,0,0,0,0,0,0,0,0,0,0,0,0,0,0,0,0,0,0,0,0,0,0,0,0,0,0,0,0,0,0,0,0,0,0,0,0,0,0,0,0,0,0,0,0,0,-0.097,-0.097,0,-0.0993,-0.0993,-0.0993,-0.0993,-0.0993,-0.0993,-0.0993,-0.1008,-0.1009,-0.1009,0,0,0,0,0,0,0,0,0,0,0,0,0,-0.0902,-0.0903,-0.097,-0.097,-0.0971,-0.0993,-0.0993,-0.0993,-0.0993,-0.0993,-0.0993,-0.0993,-0.1008,-0.1008,-0.1009,0,0,0,0,0,0,0,0,0,0,0,0,0,-0.0927,-0.0904,-0.097,-0.0975,-0.0976,-0.0993,-0.0993,-0.0993,-0.0994,-0.0993,-0.0993,-0.0993,-0.1008,-0.1008,-0.1009,-0.1016,0,0,-0.1011,-0.1012,0,0,0,0,0,0,0,0,-0.0925,-0.0929,-0.0974,-0.0975,-0.0976,-0.0992,-0.0975,-0.1001,-0.0994,-0.0985,-0.0993,-0.0993,-0.1004,-0.1005,-0.1006,-0.1016,-0.1017,-0.1011,-0.1012,-0.1012,-0.1012,0,0,0,0,0,0,0,-0.0924,-0.0928,-0.0977,-0.0975,-0.0976,-0.0969,-0.0972,-0.0979,-0.0992,-0.0985,-0.0986,-0.0992,-0.1004,-0.1005,-0.1006,-0.1017,-0.1011,-0.1012,-0.1012,-0.1013,-0.1124,-0.1127,0,0,0,0,0,0,-0.0927,-0.0927,-0.0976,-0.0978,-0.0953,-0.097,-0.0974,-0.0985,-0.0993,-0.0994,-0.0992,-0.0992,-0.1004,-0.1006,-0.1007,-0.1077,-0.1012,-0.1013,-0.1013,-0.1122,-0.1125,-0.1128,0,0,0,0,0,0,-0.0926,-0.0932,-0.0975,-0.0954,-0.0959,-0.0972,-0.0984,-0.0986,-0.1003,-0.0998,-0.1,-0.101,-0.1004,-0.1006,-0.1041,-0.1075,-0.1013,-0.1014,-0.1119,-0.1123,-0.1126,-0.1177,0,0,0,0,0,0,-0.0924,-0.0931,-0.094,-0.0954,-0.0961,-0.0999,-0.0985,-0.0986,-0.1007,-0.1008,-0.1014,-0.1014,-0.1004,-0.1041,-0.1042,-0.1075,-0.1014,-0.1116,-0.1121,-0.1125,-0.1172,-0.1182,-0.119,0,0,0,0,0,-0.0921,-0.0937,-0.094,-0.0946,-0.0973,-0.1,-0.1003,-0.1009,-0.1009,-0.1022,-0.1036,-0.1015,-0.1072,-0.1043,-0.1044,-0.1078,-0.1113,-0.1119,-0.1125,-0.1168,-0.118,-0.119,0,0,0,0,0,0,-0.0912,-0.094,-0.0943,-0.0966,-0.0987,-0.1001,-0.1016,-0.1021,-0.1042,-0.1049,-0.1039,-0.1042,-0.109,-0.1083,-0.1051,-0.1129,-0.1093,-0.1099,-0.1125,-0.1136,-0.1146,-0.1127,-0.1015,0,0,0,0,0,-0.0915,-0.0933,-0.0958,-0.0976,-0.0993,-0.1008,-0.102,-0.103,-0.105,-0.1058,-0.1065,-0.1084,-0.1113,-0.1123,-0.1144,-0.1177,-0.1147,-0.1205,-0.1214,-0.1222,-0.1211,-0.1205,-0.1211,-0.1147,-0.1147,-0.1146,0,0,-0.0914,-0.0932,-0.0941,-0.0975,-0.0993,-0.1029,-0.1015,-0.1048,-0.1079,-0.1058,-0.1104,-0.1117,-0.1133,-0.1177,-0.1198,-0.1174,-0.1229,-0.1229,-0.1235,-0.122,-0.1211,-0.1217,-0.1222,-0.1151,-0.115,-0.1149,0,0,-0.0929,-0.0945,-0.097,-0.0998,-0.1036,-0.1051,-0.1067,-0.1098,-0.1114,-0.1163,-0.1162,-0.119,-0.1234,-0.1241,-0.1253,-0.1326,-0.1282,-0.1348,-0.1368,-0.1363,-0.1367,-0.137,-0.1342,-0.1342,-0.1345,-0.1346,-0.1346,0,-0.0927,-0.0966,-0.0981,-0.1022,-0.1048,-0.1067,-0.1108,-0.1133,-0.1171,-0.1182,-0.1192,-0.125,-0.1263,-0.13,-0.1333,-0.1343,-0.1325,-0.1319,-0.1371,-0.1373,-0.1375,-0.1346,-0.1345,-0.1349,-0.1348,-0.1348,-0.1348,0,-0.0965,-0.1003,-0.1026,-0.1082,-0.1112,-0.1152,-0.1192,-0.122,-0.1248,-0.1263,-0.1313,-0.1331,-0.1354,-0.1379,-0.138,-0.1411,-0.1388,-0.1384,-0.1331,-0.1384,-0.1351,-0.1349,-0.1353,-0.1352,-0.1351,-0.135,0,0,-0.0935,-0.1033,-0.1042,-0.1079,-0.1149,-0.1175,-0.1234,-0.1277,-0.1297,-0.1345,-0.1365,-0.1429,-0.1419,-0.1432,-0.1434,-0.1435,-0.1444,-0.142,-0.1418,-0.137,-0.1416,-0.132,-0.1309,-0.1447,-0.1447,-0.1447,-0.1385,0,-0.0959,-0.1046,-0.1085,-0.1161,-0.1209,-0.1246,-0.1289,-0.1329,-0.1359,-0.1382,-0.1404,-0.1434,-0.1447,-0.1454,-0.1462,-0.1451,-0.1442,-0.1459,-0.1389,-0.1387,-0.1277,-0.1305,-0.1448,-0.1383,-0.1383,-0.1382,-0.1382,0,-0.0974,-0.1035,-0.1119,-0.12,-0.1221,-0.1266,-0.1317,-0.1358,-0.1393,-0.1412,-0.1436,-0.1446,-0.1465,-0.1465,-0.1459,-0.147,-0.1446,-0.1432,-0.1429,-0.1315,-0.1288,-0.1322,-0.1378,-0.1379,-0.1379,-0.1379,-0.1379,0,-0.0937,-0.1047,-0.1114,-0.1148,-0.1246,-0.1278,-0.132,-0.1364,-0.1386,-0.142,-0.1429,-0.1453,-0.1459,-0.1452,-0.1438,-0.1449,-0.1409,-0.1415,-0.1301,-0.1293,-0.1372,-0.137,-0.1394,-0.1394,-0.1395,-0.1395,-0.1395,0,-0.0933,-0.0985,-0.1107,-0.1143,-0.1203,-0.127,-0.1312,-0.1348,-0.1385,-0.1394,-0.1435,-0.1427,-0.1458,-0.1442,-0.1428,-0.1351,-0.14,-0.1293,-0.127,-0.1398,-0.1399,-0.137,-0.1368,-0.1392,-0.1393,-0.1393,-0.1394,0,-0.0878,-0.0964,-0.1042,-0.1156,-0.119,-0.1229,-0.1309,-0.1323,-0.1371,-0.1379,-0.1389,-0.1409,-0.1375,-0.1381,-0.1352,-0.1318,-0.1268,-0.1225,-0.1344,-0.1331,-0.1156,-0.1158,-0.1085,-0.1081,-0.1078,-0.1075,-0.1073,0,-0.0857,-0.0897,-0.1031,-0.1072,-0.1128,-0.1198,-0.1229,-0.1302,-0.1311,-0.1347,-0.1332,-0.1321,-0.132,-0.1193,-0.1218,-0.1163,-0.1153,-0.1127,-0.1158,-0.1139,-0.1124,-0.1131,-0.1138,-0.1068,-0.1067,-0.1066,-0.1065,0,-0.0809,-0.0863,-0.0928,-0.1013,-0.1071,-0.112,-0.1174,-0.1176,-0.1235,-0.1292,-0.123,-0.1195,-0.1141,-0.1108,-0.1068,-0.1039,-0.1151,-0.1092,-0.11,-0.1129,-0.1117,-0.1107,-0.1117,-0.1054,-0.1055,-0.1056,-0.1057,0,-0.0761,-0.0791,-0.0877,-0.0939,-0.1003,-0.1019,-0.1066,-0.1072,-0.1092,-0.1141,-0.111,-0.1095,-0.1116,-0.1039,-0.1007,-0.0966,-0.0954,-0.0942,-0.0957,-0.097,-0.0963,-0.0933,-0.0781,0,0,0,0,0,-0.0709,-0.0738,-0.0792,-0.0858,-0.0909,-0.0938,-0.1011,-0.1055,-0.1119,-0.1042,-0.1075,-0.1016,-0.0948,-0.0942,-0.0871,-0.0957,-0.0966,-0.0874,-0.0964,-0.099,-0.1003,-0.1007,0,0,0,0,0,0,-0.0681,-0.0732,-0.0766,-0.0765,-0.0777,-0.0817,-0.0856,-0.0907,-0.0874,-0.0939,-0.0897,-0.0947,-0.0887,-0.095,-0.0839,-0.084,-0.0878,-0.0877,-0.0874,-0.0983,-0.0995,-0.1005,-0.1014,0,0,0,0,0]},{"header":{"parameterUnit":"m.s-1","parameterCategory":2,"la1":30.2991,"la2":30.254,"lo1":-89.0895,"lo2":-89.0444,"dy":0.0017,"dx":0.0017,"nx":28,"ny":28,"refTime":"2023-09-10T09:00:00:Z","depth":"4","parameterNumber":3,"parameterNumberName":"V-component_of_CURRENTS"},"data":[0,0,0,0,0,0,0,0,0,0,0,0,0,0,0,0,0,0,0,0,0,0,0,0,0,0,0,0,0,0,0,0,0,0,0,0,0,0,0,0,0,0,0,0,0,0,0,0,0,0,0,0,0,0,0,0,0,0,-0.0117,-0.0117,0,-0.0098,-0.0098,-0.0098,-0.0073,-0.0073,-0.0072,-0.0072,-0.0017,-0.0015,-0.0014,0,0,0,0,0,0,0,0,0,0,0,0,0,-0.0114,-0.0115,-0.0117,-0.0117,-0.0117,-0.0098,-0.0098,-0.0098,-0.0073,-0.0073,-0.0072,-0.0072,-0.0017,-0.0016,-0.0014,0,0,0,0,0,0,0,0,0,0,0,0,0,-0.0107,-0.0115,-0.0118,-0.0103,-0.0101,-0.0098,-0.0098,-0.0098,-0.0073,-0.0073,-0.0072,-0.0072,-0.0017,-0.0016,-0.0014,-0.0015,0,0,-0.0009,-0.0008,0,0,0,0,0,0,0,0,-0.0108,-0.0107,-0.0105,-0.0104,-0.0102,-0.0088,-0.0077,-0.0068,-0.0073,-0.0084,-0.0072,-0.0071,-0.0038,-0.0034,-0.0032,-0.0012,-0.001,-0.0009,-0.0008,-0.0007,-0.0006,0,0,0,0,0,0,0,-0.0108,-0.0108,-0.011,-0.0105,-0.0103,-0.0091,-0.0089,-0.0075,-0.0063,-0.0083,-0.0081,-0.008,-0.0036,-0.0034,-0.003,-0.0009,-0.0009,-0.0007,-0.0006,-0.0005,0.0056,0.0057,0,0,0,0,0,0,-0.0113,-0.0109,-0.011,-0.0109,-0.0104,-0.0092,-0.009,-0.0093,-0.0064,-0.0059,-0.008,-0.0078,-0.0037,-0.0032,-0.0028,-0.0004,-0.0007,-0.0005,-0.0004,0.0056,0.0057,0.0057,0,0,0,0,0,0,-0.0113,-0.0114,-0.0111,-0.0108,-0.0107,-0.0092,-0.0096,-0.0093,-0.009,-0.0062,-0.0057,-0.008,-0.0036,-0.0031,-0.0006,-0.0003,-0.0005,-0.0003,0.0055,0.0056,0.0057,0.0029,0,0,0,0,0,0,-0.0113,-0.0114,-0.012,-0.0109,-0.0107,-0.0109,-0.0096,-0.0093,-0.009,-0.0088,-0.0061,-0.0055,-0.0035,-0.0009,-0.0005,-0.0001,-0.0002,0.0054,0.0055,0.0057,0.0029,0.0029,0.0028,0,0,0,0,0,-0.0113,-0.0126,-0.0121,-0.0121,-0.0116,-0.0109,-0.0107,-0.0094,-0.0091,-0.009,-0.0065,-0.0056,0.0002,-0.0007,-0.0002,0.0002,0.0054,0.0055,0.0056,0.0029,0.0029,0.0028,0,0,0,0,0,0,-0.0129,-0.0124,-0.0118,-0.0129,-0.0119,-0.0105,-0.0108,-0.0099,-0.0081,-0.008,-0.0052,-0.0044,-0.0021,-0.0004,-0.0015,0.0026,0.0031,0.0033,0.0008,0.0008,0.0008,-0.0002,-0.0,0,0,0,0,0,-0.0135,-0.0142,-0.0131,-0.0138,-0.0137,-0.0124,-0.0121,-0.0112,-0.0095,-0.0088,-0.0065,-0.0039,-0.0012,0.0002,0.0025,0.0042,0.006,0.0051,0.0051,0.0051,0.0048,0.0081,0.0083,0.0062,0.0062,0.0062,0,0,-0.0143,-0.0141,-0.0145,-0.0141,-0.0135,-0.0133,-0.0121,-0.012,-0.0112,-0.0084,-0.0067,-0.0042,-0.0008,0.0016,0.0029,0.0031,0.0067,0.0052,0.0051,0.0049,0.0082,0.0084,0.0086,0.0063,0.0063,0.0062,0,0,-0.0159,-0.0161,-0.017,-0.0164,-0.0158,-0.0147,-0.0148,-0.0134,-0.0122,-0.0104,-0.0077,-0.0049,-0.0016,0.0014,0.0033,0.0045,0.0063,0.0053,0.0043,0.0076,0.0077,0.0079,0.0102,0.0106,0.0054,0.0054,0.0054,0,-0.0167,-0.0179,-0.0171,-0.0176,-0.0173,-0.0154,-0.0159,-0.0144,-0.012,-0.0109,-0.01,-0.0043,-0.0015,0.0021,0.0029,0.0043,0.006,0.0038,0.0074,0.0076,0.0078,0.0101,0.0106,0.0053,0.0053,0.0053,0.0053,0,-0.0187,-0.0196,-0.0202,-0.0199,-0.0193,-0.0196,-0.0175,-0.0163,-0.0148,-0.0128,-0.0095,-0.0055,-0.002,-0.0004,0.0016,0.0048,0.0055,0.0066,0.0069,0.0078,0.0102,0.0108,0.0051,0.0052,0.0052,0.0052,0,0,-0.0203,-0.0215,-0.0216,-0.0222,-0.0208,-0.0207,-0.0192,-0.0172,-0.0162,-0.0131,-0.0112,-0.0063,-0.0044,-0.0021,0.001,0.004,0.0072,0.0056,0.0059,0.007,0.0137,0.0129,0.0135,0.0088,0.0088,0.0089,0.0146,0,-0.022,-0.0245,-0.0237,-0.0247,-0.0259,-0.0233,-0.022,-0.0196,-0.0171,-0.0145,-0.0101,-0.0073,-0.0049,-0.0034,0.0001,0.0055,0.0086,0.0055,0.0135,0.0137,0.0122,0.0141,0.0092,0.015,0.0152,0.0153,0.0153,0,-0.0238,-0.0255,-0.0279,-0.028,-0.0281,-0.0279,-0.0258,-0.0241,-0.0196,-0.0175,-0.0139,-0.0104,-0.0053,-0.0036,0.0052,0.003,0.008,0.012,0.0124,0.0129,0.014,0.0143,0.0163,0.0162,0.0162,0.0161,0.016,0,-0.0262,-0.0278,-0.0302,-0.0304,-0.0302,-0.0303,-0.0294,-0.0258,-0.0241,-0.0197,-0.018,-0.0119,-0.0084,-0.0019,0.0064,0.0059,0.0161,0.0166,0.0206,0.0206,0.0206,0.0204,0.0229,0.0229,0.0229,0.0228,0.0228,0,-0.0281,-0.0298,-0.0322,-0.0337,-0.0359,-0.0338,-0.034,-0.0319,-0.028,-0.0253,-0.0203,-0.0164,-0.0077,-0.0007,0.0061,0.0149,0.016,0.0206,0.0223,0.0193,0.0189,0.021,0.0206,0.0231,0.023,0.023,0.0229,0,-0.0299,-0.0315,-0.0348,-0.0368,-0.0376,-0.0392,-0.0381,-0.0372,-0.0333,-0.0297,-0.0284,-0.0194,-0.0102,-0.0015,0.0101,0.0145,0.0229,0.0259,0.0217,0.023,0.0251,0.0246,0.0302,0.0302,0.0302,0.0302,0.0303,0,-0.0308,-0.0331,-0.0382,-0.0411,-0.0425,-0.0443,-0.0447,-0.0411,-0.0393,-0.0306,-0.0287,-0.0192,-0.0126,0.0032,0.0118,0.0236,0.0254,0.0286,0.027,0.0249,0.026,0.0254,0.0249,0.0303,0.0303,0.0303,0.0303,0,-0.0327,-0.0353,-0.0388,-0.0454,-0.0482,-0.0496,-0.0497,-0.0484,-0.0419,-0.0384,-0.0273,-0.0178,-0.0071,0.0042,0.0133,0.022,0.0256,0.0289,0.0289,0.0274,0.0251,0.026,0.0255,0.0304,0.0304,0.0304,0.0304,0,-0.0341,-0.038,-0.0437,-0.049,-0.0527,-0.0537,-0.0531,-0.0486,-0.0451,-0.0344,-0.0303,-0.0172,-0.0089,0.0036,0.0124,0.02,0.0216,0.023,0.0233,0.0233,0.0192,0.0152,0.0191,0,0,0,0,0,-0.0351,-0.0405,-0.0464,-0.0522,-0.0554,-0.057,-0.0555,-0.0531,-0.0468,-0.0391,-0.034,-0.023,-0.007,0.0003,0.0078,0.0102,0.0204,0.019,0.0215,0.0308,0.0307,0.027,0,0,0,0,0,0,-0.0363,-0.0427,-0.0472,-0.0533,-0.0568,-0.059,-0.0578,-0.0534,-0.0479,-0.0402,-0.0315,-0.0232,-0.0084,-0.0118,0.0072,0.0098,0.012,0.0273,0.0274,0.0309,0.0308,0.0307,0.0268,0,0,0,0,0]}]]